Flag for Norway Weather past 2 weeks in Grimstad, Norway

Now
60 °F

Cool.


Feels Like: 60 °F
Forecast: 55 / 72 °F
Wind: 1 mph from Northeast

Location: Torungen Fyr

Current Time: Jul 1, 2015 at 12:30:18 AM

Latest Report: Jun 30, 2015 at 11:00 PM


Visibility: N/A

Pressure: 30.16 "Hg

Humidity: 86%

Dew point: 55 °F

Location of GrimstadLocation

Historic Weather in Grimstad — Graph

°F

Grimstad temperature yesterday

Maximum temperature yesterday: 63 °F (at 9:00 AM)
Minimum temperature yesterday: 56 °F (at 6:00 AM)
Average temperature yesterday: 60 °F

Past Weeks' High & Low Weather Summary

 TemperatureHumidityPressure
High69 °F (Jun 24, 4:00 PM)97% (Jun 17, 2:00 PM)30.15 "Hg (Jun 17, 2:00 PM)
Low47 °F (Jun 16, 4:00 AM)34% (Jun 25, 3:00 PM)29.62 "Hg (Jun 18, 6:00 PM)
Average57 °F74%29.88 "Hg
* Reported Jun 15 10:00 PM — Jun 30 10:00 PM, Grimstad, Weather by CustomWeather, © 2015

Note: Actual official high and low records may vary slightly from our data, if they occured in-between our weather recording intervals... More about our weather records

Advertising

Grimstad weather history for previous 24 hours

 ConditionsComfort  
Time TempWeatherWind HumidityBarometerVisibility
10:00 PM
Tue, Jun 30
60 °FCool.2 mph85%30.15 "HgN/A
9:00 PM59 °FCool.5 mph84%30.13 "HgN/A
8:00 PM60 °FCool.6 mph82%30.13 "HgN/A
6:00 PM60 °FCool.7 mph82%30.13 "HgN/A
4:00 PM61 °FCool.6 mph79%30.15 "HgN/A
3:00 PM62 °FCool.6 mph77%30.15 "HgN/A
2:00 PM61 °FCool.7 mph76%30.15 "HgN/A
1:00 PM61 °FCool.5 mph76%30.13 "HgN/A
12:00 PM61 °FCool.5 mph72%30.12 "HgN/A
11:00 AM61 °FCool.5 mph73%30.12 "HgN/A
10:00 AM62 °FMild.2 mph65%30.11 "HgN/A
9:00 AM63 °FMild.2 mph56%30.09 "HgN/A
8:00 AM60 °FCool.3 mph60%30.07 "HgN/A
7:00 AM58 °FCool.3 mph64%30.07 "HgN/A
6:00 AM56 °FCool.3 mph72%30.06 "HgN/A
5:00 AM56 °FCool.5 mph67%30.05 "HgN/A
4:00 AM56 °FCool.6 mph67%30.04 "HgN/A
3:00 AM57 °FCool.7 mph66%30.04 "HgN/A
2:00 AM58 °FCool.8 mph65%30.03 "HgN/A
1:00 AM59 °FCool.9 mph65%30.03 "HgN/A
12:00 AM60 °FCool.7 mph65%30.01 "HgN/A
Weather by CustomWeather, © 2015

See weather overviewHow to use our weather pages